AJ5TT Weather Reports


time (UTC)temp
C
wind
direction
speed
KPH
gust
KPH
rain 1hr
cm
rain 24hr
cm
rain mn
cm
humidity
%
barometer
mb
20260902113056 26 201 1.6 4.8 0.00 0.03 0.00 92 1014.8
20260902111602 26 0 0.0 3.2 0.00 0.03 0.00 92 1014.5
20260902110105 26 234 1.6 4.8 0.00 0.03 0.00 91 1014.6
20260902104618 26 0 0.0 3.2 0.00 0.03 0.00 91 1014.6
20260902103105 26 0 0.0 6.4 0.00 0.03 0.00 91 1014.5
20260902101606 26 215 0.0 6.4 0.00 0.03 0.00 91 1014.5
20260902100123 26 201 1.6 4.8 0.00 0.03 0.00 91 1014.3
20260902094557 26 217 0.0 3.2 0.00 0.03 0.00 91 1014.4
20260902093108 26 217 1.6 4.8 0.00 0.03 0.00 91 1014.4
20260902091616 26 219 1.6 4.8 0.00 0.03 0.00 91 1014.3
20260902090101 26 198 1.6 4.8 0.00 0.03 0.00 91 1014.3
20260902084607 26 221 1.6 4.8 0.00 0.03 0.00 91 1014.2
20260902083111 26 219 1.6 4.8 0.00 0.03 0.00 91 1014.3
20260902081617 26 229 1.6 6.4 0.00 0.03 0.00 91 1014.4
20260902080110 26 211 1.6 6.4 0.00 0.03 0.00 90 1014.6
20260902074606 26 200 3.2 8.0 0.00 0.03 0.00 90 1014.5
20260902073101 26 216 3.2 6.4 0.00 0.03 0.00 90 1014.4
20260902071601 26 203 3.2 11.3 0.00 0.03 0.00 90 1014.5
20260902070107 26 215 3.2 9.7 0.00 0.03 0.00 89 1014.5
20260902064612 26 235 3.2 8.0 0.00 0.03 0.00 89 1014.5
20260902063132 26 242 3.2 6.4 0.00 0.03 0.00 89 1014.6
20260902060137 26 223 1.6 6.4 0.00 0.03 0.00 89 1014.5
20260902054604 26 198 1.6 6.4 0.00 0.03 0.00 88 1014.4
20260902053104 26 208 1.6 4.8 0.00 0.03 0.00 88 1014.5
20260902051604 26 225 1.6 4.8 0.00 0.03 0.00 87 1014.6
20260902050058 26 214 1.6 6.4 0.00 0.03 0.00 87 1014.6
20260902044602 26 219 3.2 6.4 0.00 0.03 0.03 86 1014.6
20260902043109 27 204 3.2 8.0 0.00 0.03 0.03 85 1014.6
20260902041554 27 221 3.2 6.4 0.00 0.03 0.03 85 1014.6
20260902040108 26 0 0.0 3.2 0.00 0.03 0.03 85 1014.6
20260902034604 26 0 0.0 3.2 0.00 0.03 0.03 85 1014.7
20260902033114 26 205 0.0 3.2 0.00 0.03 0.03 85 1014.8
20260902031608 26 0 0.0 0.0 0.00 0.03 0.03 85 1014.5
20260902024618 27 0 0.0 3.2 0.00 0.03 0.03 83 1014.1
20260902023100 27 0 1.6 3.2 0.00 0.03 0.03 83 1014.0
20260902021604 26 0 0.0 0.0 0.00 0.03 0.03 84 1013.7
20260902020133 26 0 0.0 0.0 0.00 0.03 0.03 83 1013.6
20260902014604 26 0 0.0 0.0 0.00 0.03 0.03 83 1013.5
20260902013106 27 0 0.0 0.0 0.00 0.03 0.03 83 1013.2
20260902011555 27 230 1.6 3.2 0.00 0.03 0.03 82 1013.1
20260902010106 27 208 1.6 3.2 0.00 0.03 0.03 81 1013.2
20260902004601 27 0 0.0 3.2 0.00 0.03 0.03 80 1013.3
20260902003104 27 0 1.6 4.8 0.00 0.03 0.03 79 1013.4
20260902001602 27 360 1.6 3.2 0.00 0.03 0.03 79 1013.6
20260901234612 28 9 4.8 8.0 0.00 0.03 0.03 78 1013.4
20260901233100 28 300 3.2 6.4 0.00 0.03 0.03 80 1013.4
20260901231554 28 360 3.2 12.9 0.00 0.03 0.03 80 1013.5
20260901230105 28 28 6.4 17.7 0.00 0.03 0.03 79 1013.7
20260901224556 29 16 1.6 4.8 0.00 0.03 0.03 78 1013.6
20260901223116 28 329 1.6 4.8 0.03 0.03 0.03 76 1013.5
20260901221632 28 331 0.0 3.2 0.03 0.03 0.03 79 1013.3
20260901220107 28 307 1.6 4.8 0.03 0.03 0.03 79 1013.5
20260901214612 28 321 1.6 6.4 0.03 0.03 0.03 79 1013.8
20260901213106 28 279 0.0 3.2 0.00 0.00 0.00 81 1014.1
20260901211603 28 309 3.2 4.8 0.00 0.00 0.00 79 1014.1
20260901204603 28 290 0.0 4.8 0.00 0.00 0.00 77 1014.0
20260901203103 28 334 3.2 4.8 0.00 0.00 0.00 78 1014.0
20260901201603 28 319 1.6 8.0 0.00 0.00 0.00 77 1014.0
20260901200103 28 321 3.2 11.3 0.00 0.00 0.00 75 1014.3
20260901194600 28 360 3.2 9.7 0.00 2.57 0.00 74 1014.6
20260901193109 28 360 3.2 6.4 0.00 2.57 0.00 75 1015.0
20260901191606 28 344 4.8 12.9 0.00 2.57 0.00 74 1015.1
20260901184609 28 352 3.2 8.0 0.00 2.57 0.00 75 1015.4
20260901183057 28 5 3.2 8.0 0.00 2.57 0.00 77 1015.6
20260901181557 28 360 4.8 12.9 0.00 2.57 0.00 78 1015.6
20260901180106 28 26 6.4 14.5 0.00 2.57 0.00 78 1015.5
20260901174604 28 9 6.4 11.3 0.00 2.84 0.00 77 1015.6
20260901173059 28 21 4.8 14.5 0.00 2.84 0.00 77 1015.8
20260901171601 29 28 6.4 11.3 0.00 2.84 0.00 76 1016.5
20260901170104 29 18 4.8 9.7 0.00 2.84 0.00 72 1016.7
20260901164604 29 36 6.4 14.5 0.00 2.84 0.00 73 1016.7
20260901163116 29 67 6.4 14.5 0.00 2.84 0.00 75 1016.8
20260901161556 29 38 3.2 9.7 0.00 2.84 0.00 76 1016.8
20260901160106 29 24 4.8 12.9 0.00 2.84 0.00 77 1016.7
20260901154604 28 346 3.2 8.0 0.00 2.84 0.00 77 1016.5
20260901153102 28 19 4.8 8.0 0.00 2.84 0.00 79 1016.5
20260901151604 28 352 3.2 6.4 0.00 2.84 0.00 80 1016.4
20260901150116 28 352 3.2 6.4 0.00 2.84 0.00 82 1016.4
20260901144604 27 328 1.6 8.0 0.00 2.84 0.00 84 1016.3
20260901143109 27 46 4.8 9.7 0.00 2.84 0.00 84 1016.3
20260901141605 27 338 1.6 4.8 0.00 2.84 0.00 85 1016.4
20260901140115 27 308 3.2 6.4 0.00 2.84 0.00 86 1016.3
20260901134628 27 28 3.2 11.3 0.00 2.84 0.00 87 1016.2
20260901133055 27 16 3.2 6.4 0.00 2.84 0.00 89 1016.4
20260901131602 26 328 1.6 4.8 0.00 2.84 0.00 90 1016.2
20260901130112 26 14 1.6 4.8 0.00 2.84 0.00 91 1016.1
20260901124603 26 44 3.2 6.4 0.00 2.84 0.00 91 1015.9
20260901123105 26 0 0.0 0.0 0.00 2.84 0.00 92 1015.6
20260901121605 25 0 0.0 0.0 0.00 2.84 0.00 92 1015.4
20260901120106 25 0 0.0 0.0 0.00 2.84 0.00 92 1015.3
20260901114620 25 0 0.0 0.0 0.00 2.84 0.00 91 1015.3